Toluca Jose Maria, Mexico

1:10 PM CDT on May 26, 2017 (GMT -0500)
Lic Adolfo Lopez Mateos International

Weather History for MMTO - November, 2012

Change the Weather History Date:

Thursday, November 22, 2012

  Actual Average Record
Temperature  
Mean Temperature 52 °F -  
Max Temperature 68 °F 67 °F 75 °F (2003)
Min Temperature 35 °F 34 °F 23 °F (2002)
Degree Days  
Heating Degree Days 14    
Growing Degree Days 2 (Base 50)    
Moisture  
Dew Point 38 °F    
Average Humidity 70    
Maximum Humidity 93    
Minimum Humidity 28    
Precipitation  
Precipitation 0.00 in - - ()
Sea Level Pressure  
Sea Level Pressure 30.28 in    
Wind  
Wind Speed 3 mph ()    
Max Wind Speed 15 mph    
Max Gust Speed -    
Visibility 5.0 miles    
Events Fog    
Averages and records for this station are not official NWS values.
T = Trace of Precipitation, MM = Missing Value Source: Averaged Metar Reports

Daily Weather History Graph

Daily Weather History Graph

Search for Another Location

Airport or City:

Trip Planner

Search our weather history database for the weather conditions in past years. The results will help you decide how hot, cold, wet, or windy it might be!

Date:

Astronomy

Nov. 22, 2012 Rise Set
Actual Time 6:50 AM CST 5:58 PM CST
Civil Twilight 6:27 AM CST 6:21 PM CST
Nautical Twilight 6:00 AM CST 6:48 PM CST
Astronomical Twilight 5:33 AM CST 7:15 PM CST
Moon 2:09 PM CST (11/22) 1:52 AM CST (11/22)
Length of Visible Light 11h 54m
Length of Day
11h 07m
Waxing Gibbous, 71% of the Moon is Illuminated
Nov 22
Waxing Gibbous
Nov 28
Full
Dec 6
Last Quarter
Dec 13
New
Dec 19
First Quarter

Hourly Weather History & Observations

Time (CST) Temp. Windchill Dew Point Humidity Pressure Visibility Wind Dir Wind Speed Gust Speed Precip Events Conditions
12:45 AM 42.8 °F 41.1 °F 39.2 °F 87% 30.42 in 7.0 mi NW 3.5 mph - N/A   Scattered Clouds
1:45 AM 41.0 °F - 37.4 °F 87% 30.41 in 7.0 mi Calm Calm - N/A   Scattered Clouds
2:45 AM 39.2 °F 37.0 °F 37.4 °F 93% 29.95 in 7.0 mi NW 3.5 mph - N/A   Scattered Clouds
3:45 AM 41.0 °F 39.0 °F 37.4 °F 87% 30.39 in 5.0 mi NNW 3.5 mph - N/A   Scattered Clouds
4:45 AM 39.2 °F 37.0 °F 35.6 °F 87% 30.40 in 5.0 mi WNW 3.5 mph - N/A   Scattered Clouds
5:45 AM 39.2 °F - 35.6 °F 87% 29.98 in 4.0 mi Calm Calm - N/A   Scattered Clouds
6:20 AM 35.6 °F 31.7 °F 32.0 °F 87% 30.42 in 0.5 mi ESE 4.6 mph - N/A Fog Fog
6:45 AM 35.6 °F - 32.0 °F 87% 30.42 in 0.2 mi Calm Calm - N/A Fog Fog
7:45 AM 37.4 °F - 35.6 °F 93% 30.43 in 0.1 mi Calm Calm - N/A Fog Fog
8:30 AM 39.2 °F - 37.4 °F 93% 30.45 in 0.5 mi Calm Calm - N/A Fog Fog
8:45 AM 41.0 °F - 39.2 °F 93% 30.13 in 1.0 mi Calm Calm - N/A   Clear
9:30 AM 46.4 °F 45.2 °F 42.8 °F 87% 30.47 in 2.0 mi North 3.5 mph - N/A   Clear
9:45 AM 48.2 °F - 42.8 °F 82% 30.47 in 2.0 mi Calm Calm - N/A   Clear
10:45 AM 55.4 °F - 44.6 °F 67% 30.45 in 3.0 mi NW 4.6 mph - N/A   Haze
11:45 AM 62.6 °F - 42.8 °F 48% 29.96 in 7.0 mi NW 6.9 mph - N/A   Mostly Cloudy
12:45 PM 62.6 °F - 37.4 °F 39% 30.39 in 8.0 mi Calm Calm - N/A   Mostly Cloudy
1:45 PM 62.6 °F - 33.8 °F 34% 30.36 in 8.0 mi SW 5.8 mph - N/A   Mostly Cloudy
2:45 PM 68.0 °F - 33.8 °F 28% 29.77 in 7.0 mi NW 3.5 mph - N/A   Mostly Cloudy
3:45 PM 66.2 °F - 37.4 °F 35% 30.32 in 7.0 mi SSE 9.2 mph - N/A   Mostly Cloudy
4:45 PM 64.4 °F - 39.2 °F 40% 30.33 in 7.0 mi South 15.0 mph - N/A   Mostly Cloudy
5:45 PM 60.8 °F - 37.4 °F 42% 29.93 in 7.0 mi SSE 10.4 mph - N/A   Mostly Cloudy
6:45 PM 53.6 °F - 37.4 °F 54% 30.38 in 7.0 mi SSE 8.1 mph - N/A   Mostly Cloudy
7:45 PM 51.8 °F - 37.4 °F 58% 30.41 in 6.0 mi SSE 6.9 mph - N/A   Mostly Cloudy
8:45 PM 51.8 °F - 39.2 °F 62% 30.08 in 7.0 mi Calm Calm - N/A   Mostly Cloudy
9:45 PM 46.4 °F - 39.2 °F 76% 30.44 in 7.0 mi Calm Calm - N/A   Mostly Cloudy
10:45 PM 48.2 °F - 41.0 °F 76% 30.45 in 7.0 mi ENE 5.8 mph - N/A   Mostly Cloudy
11:45 PM 46.4 °F - 41.0 °F 81% 29.93 in 5.0 mi Calm Calm - N/A   Mostly Cloudy